Regional Weather Roundup
Issued by NWS

Home | Current Version | Previous Version | Text Only | Print | Product List | Glossary Off
Versions: 1 2 3 4 5 6 7 8 9 10 11 12 13 14 15 16 17 18 19 20 21 22 23 24 25 26 27 28 29 30 31 32 33 34 35 36 37 38 39 40 41 42 43 44 45 46 47 48 49 50

000
ASUS43 KOAX 221810
RWRNE

WEATHER ROUNDUP FOR NEBRASKA
NATIONAL WEATHER SERVICE OMAHA NE
100 PM CDT FRI JUL 22 2016

NOTES: SATELLITE DATA IS BEING USED TO AUGMENT CLOUD COVER ABOVE
       12000 FEET.
       "FAIR" INDICATES FEW OR NO CLOUDS BELOW 12,000 FEET WITH NO
       SIGNIFICANT WEATHER AND/OR OBSTRUCTIONS TO VISIBILITY.

  * THESE STATIONS DO NOT REPORT WEATHER SUCH AS RAIN...SNOW OR FOG.

NEZ001>004-019>022-054>056-221900-
NEBRASKA PANHANDLE

CITY           SKY/WX    TMP DP  RH WIND       PRES   REMARKS
SCOTTSBLUFF    CLOUDY    89  67  47 E6        30.12F HX  92
6HR MIN TEMP:  70; 6HR MAX TEMP:  90;

ALLIANCE       CLOUDY    93  60  33 VRB7      30.11F HX  93
6HR MIN TEMP:  64; 6HR MAX TEMP:  95;

CHADRON        SUNNY    101  46  15 S14G22    30.05F HX  97
6HR MIN TEMP:  70; 6HR MAX TEMP: 101;

KIMBALL        SUNNY     94  55  26 SE14G21   30.20F HX  92
SIDNEY         SUNNY     94  58  29 S16       30.17F HX  93
6HR MIN TEMP:  69; 6HR MAX TEMP:  95;

$$

NEZ057>060-069>072-079>082-221900-
SOUTHWEST NEBRASKA

CITY           SKY/WX    TMP DP  RH WIND       PRES   REMARKS
NORTH PLATTE   SUNNY     94  75  54 E9        30.04F HX 105
6HR MIN TEMP:  69; 6HR MAX TEMP:  94;

IMPERIAL       SUNNY     95  63  34 SE7       30.09S HX  96
6HR MIN TEMP:  69; 6HR MAX TEMP:  96;

LEXINGTON      SUNNY     95  76  54 E7        30.02R HX 108
MCCOOK         CLOUDY    96  71  44 SE5       30.04S THUNDER HX 103
6HR MIN TEMP:  73; 6HR MAX TEMP:  96;

OGALLALA       SUNNY     94  70  45 E9        30.09S HX 100
$$

NEZ005>010-023>029-035>040-094-221900-
NORTH CENTRAL NEBRASKA

CITY           SKY/WX    TMP DP  RH WIND       PRES   REMARKS
VALENTINE      CLOUDY    93  68  43 SE7       30.05F HX  97
6HR MIN TEMP:  67; 6HR MAX TEMP:  94;

AINSWORTH      SUNNY     88  77  68 E5        30.06F HX 100
BROKEN BOW     SUNNY     91  76  61 NE9       30.03S HX 103
6HR MIN TEMP:  71; 6HR MAX TEMP:  91;

O`NEILL        CLOUDY    89  75  63 NE7       30.02F HX 100
ORD            SUNNY     94  76  55 NE9       29.98F HX 106
6HR MIN TEMP:  74; 6HR MAX TEMP:  94;

THEDFORD       SUNNY     98  64  32 E12       30.07S HX 100
$$

NEZ041-046>049-061>064-073>077-083>087-221900-
SOUTH CENTRAL NEBRASKA

CITY           SKY/WX    TMP DP  RH WIND       PRES   REMARKS
GRAND ISLAND   SUNNY     94  77  57 N7        29.97S HX 108
6HR MIN TEMP:  73; 6HR MAX TEMP:  94;

AURORA         SUNNY     92  81  71 SE3       29.96S HX 113
HASTINGS       SUNNY     94  76  55 SW8       29.99R HX 106
6HR MIN TEMP:  74; 6HR MAX TEMP:  95;

HEBRON         PTSUNNY   92  71  50 S7        29.96S HX  99
HOLDREGE       CLOUDY    90  72  55 E7        30.01S HX  97
KEARNEY *      CLOUDY    93  75  55 SE7       30.02R HX 104
YORK           SUNNY     90  77  66 S7        29.96F HX 102
$$

NEZ011>018-030>034-042>045-221900-
NORTHEAST NEBRASKA

CITY           SKY/WX    TMP DP  RH WIND       PRES   REMARKS
NORFOLK        SUNNY     91  74  57 E10       29.95F HX 100
6HR MIN TEMP:  75; 6HR MAX TEMP:  92;

ALBION         SUNNY     89  76  64 E7        29.98S HX 100
BLAIR          SUNNY     89  77  67 S10       29.98R HX 101
FREMONT        SUNNY     90  74  60 SE10      29.97S HX  99
TEKAMAH        SUNNY     91  76  61 S10       29.95R HX 103
6HR MIN TEMP:  78; 6HR MAX TEMP:  91;

WAYNE          SUNNY     90  80  73 E9        29.97S HX 108
$$

NEZ050>053-065>068-078-088>093-221900-
SOUTHEAST NEBRASKA

CITY           SKY/WX    TMP DP  RH WIND       PRES   REMARKS
LINCOLN        SUNNY     92  74  55 VRB7      29.96R HX 101
6HR MIN TEMP:  78; 6HR MAX TEMP:  92;

OMAHA EPPLEY   MOSUNNY   91  76  61 S15       29.96R HX 103
6HR MIN TEMP:  81; 6HR MAX TEMP:  92;

BEATRICE       CLOUDY    94  72  48 S13       29.96S HX 101
FALLS CITY     SUNNY     91  79  67 SE21G28   29.98S HX 107
6HR MIN TEMP:  79; 6HR MAX TEMP:  92;

NEBRASKA CITY  SUNNY     90  77  65 S12G18    29.98S HX 103
PLATTSMOUTH    MOSUNNY   89  78  69 SE15G21   29.97F HX 102
$$

NEZ044-045-051>053-067-221900-
OMAHA AREA

CITY           SKY/WX    TMP DP  RH WIND       PRES   REMARKS
OMAHA EPPLEY   MOSUNNY   91  76  61 S15       29.96R HX 103
6HR MIN TEMP:  81; 6HR MAX TEMP:  92;

BLAIR          SUNNY     89  77  67 S10       29.98R HX 101
FREMONT        SUNNY     90  74  60 SE10      29.97S HX  99
MILLARD        SUNNY     90  77  66 S12G20    29.96R HX 103
OFFUTT AFB     SUNNY     90  77  67 SE13G21   29.96S HX 103
PLATTSMOUTH    MOSUNNY   89  78  69 SE15G21   29.97F HX 102
WAHOO          FAIR      90  74  59 SE9       29.96S HX  99
$$




USA.gov is the U.S. government's official web portal to all federal, state and local government web resources and services.